Weather in Pushanino

Russia / Penza Oblast     52°55′56″N   43°23′12″E
temp.,
°C
wind,
m/s
gust,
m/s
humid.,
%
clouds,
%
prec.,
mm/h
press.,
hPa
HPBL,
m
28 february, sun
sun2800:00−13nnw499596 0.0 1011263
03:00−15nw479685 0.1 1013143
06:00−16nw36973 0.0 1014103
09:00−14nw489420 0.0 1014274
12:00−11nw469178 0.0 1015440
15:00−10nw359089 0.1 1015501
18:00−12nnw2394100 0.0 101621
21:00−14nne239588 0.1 101920
1 march, mon
mon100:00−16nne23951 0.0 102020
03:00−17n22941 0.0 102220
06:00−17n23930 0.0 102320
09:00−15nnw23910 0.0 102592
12:00−11wnw238827 0.0 1026311
15:00−9w349261 0.0 1025299
18:00−12wsw339657 0.0 102429
21:00−11wsw459767 0.0 102480
2 march, tue
tue200:00−8wsw5129796 0.1 1021300
03:00−6sw7139598 0.3 1017413
06:00−4wsw81496100 0.9 1012591
09:00−2wsw81497100 3.2 1009764
12:000w81398100 1.6 1006763
15:000wnw71299100 2.8 1005735
18:00−1nw71493100 0.3 1006690
21:00−2nw6129297 0.4 1008665
3 march, wed
wed300:00−3wnw5119698 0.1 1008378
03:00−4wnw5109697 0.3 1009393
06:00−5nw6139499 0.2 1009544
09:00−5nw71291100 0.3 1010859
12:00−4nw81188100 0.1 1011893
15:00−4nw71188100 0.3 1013948
18:00−5nw5139198 0.1 1014599
21:00−8nw5129168 0.1 1017275
4 march, thu
thu400:00−10nw49940 0.0 1018145
03:00−12wnw47960 0.0 1019105
06:00−12wnw349877 0.0 102077
09:00−8w489781 0.1 1020272
12:00−4wsw5994100 0.0 1019412
15:00−2wsw61190100 0.0 1017645
18:00−4sw6139284 0.0 1015415
21:00−3sw7158892 0.0 1014536